Location: Unspecified
(33.6682°S, 0.0000°E)
Time: 03:22:53
(UTC+00:00)

OTV 5 (USA 277) - Visible Passes

Search period start: 21 May 2019 00:00
Search period end: 31 May 2019 00:00
Orbit: 310 x 325 km, 54.5° (Epoch: 08 May)

Date Brightness Start Highest point End Pass type
(mag) Time Alt. Az. Time Alt. Az. Time Alt. Az.
21 May ? 05:33:51 40° WNW 05:34:03 41° NW 05:36:42 10° NNE visible
22 May ? 05:48:46 12° NW 05:48:46 12° NW 05:49:53 10° NNW visible
26 May ? 18:19:28 10° NNW 18:21:33 31° NNE 18:21:33 31° NNE visible
27 May ? 18:33:55 10° NW 18:36:20 54° WSW 18:36:20 54° WSW visible
28 May ? 18:49:24 10° W 18:51:02 18° SW 18:51:02 18° SW visible
29 May ? 17:29:07 10° NW 17:31:47 68° NE 17:34:31 10° SE visible
30 May ? 17:44:05 10° WNW 17:46:32 30° SW 17:49:02 10° SSE visible
